982  
ASUS44 KLUB 131410  
RWRLUB  
WEST TEXAS WEATHER ROUNDUP  
NATIONAL WEATHER SERVICE LUBBOCK TX  
800 AM CST FRI DEC 13 2019  
 
NOTE: "FAIR" INDICATES FEW OR NO CLOUDS BELOW 12,000 FEET WITH NO  
SIGNIFICANT WEATHER AND/OR S TO VISIBILITY
.  
 
TXZ004-006>008-010-012-014-016-OKZ002-131500-  
TEXAS PANHANDLE/OKLAHOMA PANHANDLE  
 
CITY SKY/WX TMP DP RH WIND PRES REMARKS
 
AMARILLO CLEAR 40 25 55 W15 29.90R WCI 32  
BORGER CLEAR 39 24 55 W14 29.90R WCI 31  
CANADIAN CLEAR 25 23 91 CALM 29.89S  
DALHART CLEAR 31 21 66 NW12 29.92R WCI 22  
DUMAS CLEAR 34 22 62 W13 29.90S WCI 25  
GUYMON CLEAR 31 21 66 W7 29.88R WCI 24  
HEREFORD CLEAR 35 29 79 W9 29.94S WCI 27  
PAMPA CLEAR 33 28 79 W14 29.89S WCI 24  
PERRYTON CLEAR 25 21 87 W9 29.86S WCI 15  

 
 
TXZ026-029-035-045-048-131500-  
SOUTHERN PANHANDLE/SOUTH PLAINS/ROLLING PLAINS  
 
CITY SKY/WX TMP DP RH WIND PRES REMARKS
 
CHILDRESS CLEAR 34 28 79 NW5 29.91F WCI 30  
SEMINOLE CLEAR 48 32 54 W13 30.04R  
LUBBOCK PTCLDY 35 27 72 W9 29.94R WCI 28  
PLAINVIEW CLEAR 35 27 74 NW9 29.93R WCI 27  
SNYDER CLEAR 42 31 64 NW3 29.93F  

 
 
TXZ052-054-060>062-072-078-127-140-154-169-131500-  
PERMIAN BASIN/CONCHO VALLEY/BIG COUNTRY/EDWARDS PLATEAU  
 
CITY SKY/WX TMP DP RH WIND PRES REMARKS
 
ABILENE CLEAR 42 35 76 NW8 29.92S  
BRADY CLEAR 45 39 81 W10 29.92F  
BROWNWOOD CLEAR 36 34 93 CALM 29.91F  
JUNCTION CLEAR 37 35 92 NW5 30.00R WCI 33  
MIDLAND CLEAR 49 35 58 W15 29.99S  
ODESSA CLEAR 47 34 60 NW8 30.02R  
SAN ANGELO CLEAR 44 37 76 S5 29.96R  
SONORA CLEAR 36 36 100 CALM 30.06R  
SWEETWATER CLEAR 44 33 66 SW7 29.95R  
WINK CLEAR 45 36 70 NW7 30.01S  

 
 
TXZ055-058-074-075-080-082-131500-  
FAR WEST/SOUTHWEST MOUNTAINS/TRANS PECOS  
 
CITY SKY/WX TMP DP RH WIND PRES REMARKS
 
ALPINE CLEAR 48 31 50 SW7 30.19R  
EL PASO PTCLDY 37 36 93 N7 30.18R WCI 32  
FORT STOCKTON CLEAR 47 35 63 W12 30.05S  
GUADALUPE PASS CLEAR 36 34 92 SW20 30.16R WCI 25  
MARFA CLEAR 42 31 64 SW13 30.18R  
PECOS CLEAR 49 36 60 W9 30.05F  
PRESIDIO FAIR 43 37 82 CALM 30.17S  

 
 
TXZ014-016-019-021>030-083-131500  
TEXAS TECH WEST TEXAS MESONET/TEXAS PANHANDLE/NORTHERN SOUTH PLAINS  
 
CITY SKY/WX TMP DP RH WIND PRES REMARKS
 
ABERNATHY 5ENE N/A 33 27 76 W7 29.96R WCI 27  
AMARILLO 9NNE N/A 22 20 92 CALM 29.93S  
AMARILLO 7SSE N/A 31 24 75 W6 29.93R WCI 26  
AMHERST 1NE N/A 44 28 54 W18 29.96R  
BOOTLEG 11WNW N/A 36 26 68 W10 30.00R WCI 28  
CANADIAN 6E N/A 27 24 91 W7 29.86F WCI 19  
CAPROCK CYN SP N/A 43 26 52 W16 29.93R  
CHILDRESS 2NNE N/A 33 30 89 W9 29.90S WCI 25  
CLARENDON 2WSW N/A 32 24 74 NW1 29.90S  
DIMMITT 2NE N/A 38 29 70 W9 29.94S WCI 31  
FLOYDADA 2NNE N/A 32 27 81 W8 29.93R WCI 25  
FRIONA 2NE N/A 35 28 74 W8 29.98R WCI 29  
GOODLETT 3W N/A 33 31 94 W1 29.90F  
HART 3N N/A 33 29 85 W9 29.94R WCI 25  
HEREFORD 2NW N/A 38 28 67 W13 29.95R WCI 30  
MCLEAN 1E N/A 38 28 66 SW7 29.86F WCI 33  
MEMPHIS 1NE N/A 31 28 90 W2 29.91R  
MULESHOE 2SSW N/A 40 29 66 W13 29.98S WCI 32  
OLTON 6S N/A 40 28 62 W15 29.96R WCI 32  
PALO DURO SP N/A 36 25 65 W15 29.93R WCI 27  
PAMPA 2E N/A 35 27 70 W9 29.89S WCI 28  
PLAINVIEW 1S N/A 38 30 72 W12 29.92S WCI 30  
SILVERTON 7ESE N/A 32 27 81 W10 29.92R WCI 24  
TULIA 2ENE N/A 35 27 73 W12 29.93S WCI 27  
TURKEY 2WSW N/A 35 28 75 SW12 29.91R WCI 27  
UMBARGER 3NNE N/A 35 28 75 W10 29.94R WCI 27  

 
 
TXZ033>036-039>041-045>048-131500  
TEXAS TECH WEST TEXAS MESONET/SOUTH PLAINS  
 
CITY SKY/WX TMP DP RH WIND PRES REMARKS
 
AIKEN 3WSW N/A 30 25 83 W7 29.94S WCI 23  
ANDREWS 2NE N/A 50 32 50 W10 30.01R  
ANTON 6SSW N/A 40 28 63 W12 29.96R WCI 32  
BROWNFIELD 2S N/A 47 30 51 W15 29.97R  
DENVR CTY 7WNW N/A 48 29 47 NW15 30.00R  
GAIL 2ESE N/A 51 28 40 NW13 29.94F  
LAMESA 2SE N/A 42 32 69 W8 29.97R  
LUBBOCK 3WNW N/A 40 28 63 W8 29.96R WCI 34  
MORTON 1ENE N/A 47 29 49 W17 29.97S  
ODONNELL 1N N/A 37 29 73 W8 29.96R WCI 31  
PLAINS 3N N/A 51 30 45 W21 29.99R  
RALLS 1SE N/A 40 27 59 W10 29.95R WCI 33  
REESE CENTER N/A 40 29 64 W10 29.96R WCI 33  
SEAGRAVES 1SW N/A 45 31 59 W9 29.99R  
SEMINOLE 2NNE N/A 48 31 51 W13 29.99R  
SLATON 2NE N/A 39 28 63 W8 29.95R WCI 34  
SNYDER 3E N/A 38 31 76 S2 29.93S  
SUNDOWN 8SW N/A 48 28 46 W15 29.98R  
TAHOKA 3NNE N/A 36 28 73 W7 29.95S WCI 31  
WOLFFORTH 6SSW N/A 42 29 61 NW12 29.97R  

 
 
TXZ031-032-036>038-042>044-131500-  
TEXAS TECH WEST TEXAS MESONET/ROLLING PLAINS  
 
CITY SKY/WX TMP DP RH WIND PRES REMARKS
 
ASPERMONT 3NE N/A 34 31 88 SW2 29.92S  
FLUVANNA 3WNW N/A 47 30 51 NW16 29.94R  
GRAHAM 5SSW N/A 45 29 53 NW17 29.94R  
GUTHRIE 10WSW N/A 40 31 69 W3 29.91S  
HASKELL 1NW N/A 37 34 89 NW8 29.92R WCI 31  
JAYTON 1SSE N/A 33 30 87 W5 29.93S WCI 29  
KNOX CITY 3NW N/A 35 33 94 NW2 29.93S  
LK A HENRY 1NW N/A 38 30 71 NW8 29.94R WCI 32  
NORTHFIELD 1S N/A 31 27 86 SW8 29.92R WCI 23  
ODELL 4ENE N/A 29 28 96 NW3 29.92F  
PADUCAH 10SW N/A 39 31 73 NW7 29.90S WCI 34  
POST 1NE N/A 47 27 45 W18 29.93R  
RRING SPRGS 3N N/A 36 31 82 W13 29.91S WCI 27  
SEYMOUR 3NW N/A 32 32 98 NW5 29.91F WCI 28  
SPUR 1W N/A 38 30 72 NW7 29.92R WCI 33  
WEINERT 2NNE N/A 34 32 92 NW5 29.93S WCI 30  
WHITE RVR 6NE N/A 43 28 56 NW9 29.92S  

 
 
TXZ052-054-060>062-072-078-127-140-154-169-131500-  
TEXAS TECH WEST TEXAS MESONET/PERMIAN BASIN/  
CONCHO VALLEY/BIG COUNTRY/EDWARDS PLATEAU  
 
CITY SKY/WX TMP DP RH WIND PRES REMARKS
 
COYANOSA 2N N/A 48 38 66 SW7 30.04S  
JUNCTION 1SSW N/A 34 34 99 CALM 30.01S  
MERTZON 3NNE N/A 50 38 62 SW5 29.97F  
SAN ANGELO 7NW N/A 41 37 84 CALM 29.95S  
STRLNG CT 4WSW N/A 47 35 63 W7 29.97F  
ST LAWRNCE 5SW N/A 40 37 92 SW7 29.99S WCI 35  
SWEETWATR 11SW N/A 39 34 82 SW7 29.94F WCI 34  
WALL 1E N/A 47 39 73 SW13 29.97S  

 
 
TXZ055-058-074-075-080-082-131500-  
TEXAS TECH WEST TEXAS MESONET/FAR WEST/SOUTHWEST MOUNTAINS/TRANS PECOS  
 
CITY SKY/WX TMP DP RH WIND PRES REMARKS
 
PRSMN GAP BBNP N/A 48 35 59 S6 30.11S  
GUADLPE MTN NP N/A 54 29 38 W18 30.17R  

 
 
 
CLICK HERE TO GO TO PREVIOUS BULLETINS.

The Nexlab TX Page Main Text Page